WMT411 LATI-LIBP

Flight info

Callsign WMT411
Flight time 0h 53m
Altitude 36000
Route DIRES DCT PAPIZ DCT ENOXA DCT BANAV DCT GARGA DCT RIVAM/N0359F180 M169 ERPOG
Aircraft A321/M-SDE1E2E3FGIJ1J4RWXY/LB1

Departure

Time 2026-05-05 07:48
Airport Tirana International Airport Mother Teresa (LATI)

Arrival

Time 2026-05-05 08:42
Airport Abruzzo Airport (LIBP)
Time Latitude Longitude Altitude Speed Heading
2026-05-05 06:34 41.41988 19.71514 123 ft 0 kts 264°
2026-05-05 06:58 41.41988 19.71515 147 ft 0 kts 264°
2026-05-05 07:25 41.41988 19.71516 123 ft 0 kts 264°
2026-05-05 07:37 41.41989 19.71529 118 ft 4 kts 271°
2026-05-05 07:38 41.41983 19.71562 120 ft 4 kts 311°
2026-05-05 07:38 41.41964 19.71578 126 ft 2 kts 353°
2026-05-05 07:38 41.41958 19.71579 126 ft 0 kts 354°
2026-05-05 07:40 41.41983 19.71576 121 ft 7 kts 355°
2026-05-05 07:40 41.42060 19.71567 121 ft 14 kts 354°
2026-05-05 07:40 41.42176 19.71552 118 ft 13 kts 351°
2026-05-05 07:41 41.42247 19.71566 119 ft 10 kts 43°
2026-05-05 07:41 41.42266 19.71651 119 ft 9 kts 83°
2026-05-05 07:41 41.42274 19.71741 118 ft 11 kts 83°
2026-05-05 07:41 41.42281 19.71812 119 ft 0 kts 83°
2026-05-05 07:47 41.42281 19.71815 119 ft 2 kts 83°
2026-05-05 07:47 41.42280 19.71894 120 ft 15 kts 110°
2026-05-05 07:47 41.42118 19.71970 120 ft 51 kts 174°
2026-05-05 07:48 41.41506 19.72052 125 ft 123 kts 174°
2026-05-05 07:48 41.40467 19.72191 183 ft 171 kts 175°
2026-05-05 07:48 41.39284 19.72341 893 ft 170 kts 175°
2026-05-05 07:48 41.38111 19.72495 1621 ft 172 kts 175°
2026-05-05 07:49 41.36846 19.72663 1955 ft 194 kts 174°
2026-05-05 07:49 41.35426 19.72851 2242 ft 216 kts 174°
2026-05-05 07:49 41.33852 19.73060 2533 ft 237 kts 174°
2026-05-05 07:49 41.32184 19.73283 3138 ft 248 kts 174°
2026-05-05 07:50 41.30426 19.73517 3808 ft 258 kts 174°
2026-05-05 07:50 41.28620 19.73758 4608 ft 264 kts 174°
2026-05-05 07:50 41.26775 19.73995 5411 ft 269 kts 176°
2026-05-05 07:50 41.24926 19.73589 6142 ft 276 kts 207°
2026-05-05 07:51 41.23499 19.71895 6892 ft 280 kts 236°
2026-05-05 07:51 41.22595 19.69587 7657 ft 284 kts 248°
2026-05-05 07:51 41.21918 19.67112 8464 ft 287 kts 252°
2026-05-05 07:51 41.21274 19.64586 9266 ft 291 kts 251°
2026-05-05 07:52 41.20577 19.62045 10054 ft 294 kts 250°
2026-05-05 07:52 41.19805 19.59470 10519 ft 310 kts 248°
2026-05-05 07:52 41.18925 19.56738 10725 ft 333 kts 247°
2026-05-05 07:52 41.17955 19.53879 11196 ft 344 kts 246°
2026-05-05 07:53 41.16943 19.50975 11879 ft 349 kts 246°
2026-05-05 07:53 41.15910 19.48044 12597 ft 352 kts 246°
2026-05-05 07:53 41.14865 19.45089 13320 ft 356 kts 246°
2026-05-05 07:53 41.13814 19.42109 14057 ft 358 kts 246°
2026-05-05 07:54 41.12758 19.39103 14688 ft 361 kts 246°
2026-05-05 07:54 41.11696 19.36073 15344 ft 363 kts 246°
2026-05-05 07:54 41.10627 19.33019 16005 ft 366 kts 247°
2026-05-05 07:54 41.09549 19.29945 16671 ft 369 kts 246°
2026-05-05 07:55 41.08459 19.26852 17320 ft 372 kts 247°
2026-05-05 07:55 41.07360 19.23737 17961 ft 374 kts 247°
2026-05-05 07:55 41.06221 19.20622 18574 ft 378 kts 243°
2026-05-05 07:55 41.04726 19.17729 19105 ft 384 kts 232°
2026-05-05 07:56 41.02926 19.15088 19648 ft 388 kts 230°
2026-05-05 07:56 41.01099 19.12443 20201 ft 391 kts 230°
2026-05-05 07:56 40.99262 19.09778 20747 ft 393 kts 231°
2026-05-05 07:56 40.97437 19.07131 21314 ft 396 kts 231°
2026-05-05 07:57 40.95549 19.04397 21864 ft 399 kts 231°
2026-05-05 07:57 40.93684 19.01663 22404 ft 401 kts 235°
2026-05-05 07:57 40.92164 18.98603 22905 ft 397 kts 248°
2026-05-05 07:57 40.91210 18.95245 23413 ft 394 kts 260°
2026-05-05 07:58 40.90827 18.91686 23880 ft 390 kts 272°
2026-05-05 07:58 40.91022 18.88126 24313 ft 387 kts 284°
2026-05-05 07:58 40.91746 18.84717 24760 ft 386 kts 291°
2026-05-05 07:58 40.92589 18.81345 25214 ft 387 kts 291°
2026-05-05 07:59 40.93428 18.77962 25664 ft 388 kts 290°
2026-05-05 07:59 40.94263 18.74572 26144 ft 388 kts 290°
2026-05-05 07:59 40.95097 18.71181 26620 ft 388 kts 290°
2026-05-05 07:59 40.95932 18.67781 27053 ft 389 kts 290°
2026-05-05 08:00 40.96768 18.64370 27477 ft 390 kts 290°
2026-05-05 08:00 40.97603 18.60945 27904 ft 392 kts 290°
2026-05-05 08:00 40.98438 18.57509 28314 ft 393 kts 290°
2026-05-05 08:00 40.99280 18.54054 28712 ft 395 kts 290°
2026-05-05 08:01 41.00125 18.50587 29102 ft 396 kts 290°
2026-05-05 08:01 41.00973 18.47108 29484 ft 398 kts 290°
2026-05-05 08:01 41.01825 18.43611 29859 ft 400 kts 290°
2026-05-05 08:01 41.02678 18.40101 30227 ft 401 kts 290°
2026-05-05 08:02 41.03531 18.36573 30541 ft 403 kts 290°
2026-05-05 08:02 41.04386 18.33036 30850 ft 404 kts 290°
2026-05-05 08:02 41.05246 18.29477 31159 ft 406 kts 290°
2026-05-05 08:02 41.06108 18.25904 31448 ft 408 kts 290°
2026-05-05 08:03 41.06973 18.22316 31832 ft 408 kts 289°
2026-05-05 08:03 41.07832 18.18744 32263 ft 406 kts 289°
2026-05-05 08:03 41.08689 18.15173 32678 ft 405 kts 289°
2026-05-05 08:03 41.09540 18.11621 33088 ft 404 kts 289°
2026-05-05 08:04 41.10390 18.08068 33490 ft 404 kts 289°
2026-05-05 08:04 41.11236 18.04528 33888 ft 403 kts 289°
2026-05-05 08:04 41.12071 18.01035 34254 ft 402 kts 289°
2026-05-05 08:04 41.12913 17.97504 34584 ft 402 kts 289°
2026-05-05 08:05 41.13752 17.93969 34903 ft 401 kts 289°
2026-05-05 08:05 41.14586 17.90438 35213 ft 401 kts 288°
2026-05-05 08:05 41.15421 17.86904 35523 ft 401 kts 288°
2026-05-05 08:05 41.16259 17.83370 35824 ft 402 kts 288°
2026-05-05 08:06 41.17103 17.79817 35980 ft 405 kts 288°
2026-05-05 08:06 41.17950 17.76229 36095 ft 410 kts 288°
2026-05-05 08:06 41.19846 17.69015 36103 ft 417 kts 297°
2026-05-05 08:07 41.23358 17.62906 36104 ft 421 kts 315°
2026-05-05 08:07 41.27673 17.57627 36099 ft 422 kts 315°
2026-05-05 08:08 41.31959 17.52299 36100 ft 422 kts 315°
2026-05-05 08:08 41.36238 17.46962 36106 ft 422 kts 315°
2026-05-05 08:09 41.40534 17.41614 36109 ft 423 kts 315°
2026-05-05 08:09 41.44840 17.36261 36112 ft 424 kts 314°
2026-05-05 08:10 41.49141 17.30888 36116 ft 424 kts 314°
2026-05-05 08:10 41.53442 17.25507 36117 ft 424 kts 314°
2026-05-05 08:11 41.57742 17.20130 36116 ft 424 kts 314°
2026-05-05 08:11 41.62037 17.14741 36113 ft 424 kts 314°
2026-05-05 08:12 41.65610 17.10252 36114 ft 424 kts 314°
2026-05-05 08:12 41.69899 17.04844 36104 ft 424 kts 314°
2026-05-05 08:13 41.74020 16.99221 36102 ft 422 kts 307°
2026-05-05 08:13 41.77731 16.93130 36115 ft 422 kts 307°
2026-05-05 08:14 41.81445 16.87038 36110 ft 422 kts 307°
2026-05-05 08:14 41.85151 16.80939 36109 ft 422 kts 307°
2026-05-05 08:15 41.88842 16.74830 36074 ft 415 kts 307°
2026-05-05 08:15 41.90629 16.71876 36075 ft 403 kts 307°
2026-05-05 08:15 41.92388 16.68972 36077 ft 399 kts 307°
2026-05-05 08:16 41.95868 16.63211 36078 ft 397 kts 306°
2026-05-05 08:16 41.99336 16.57448 36076 ft 396 kts 306°
2026-05-05 08:17 42.02776 16.51720 36090 ft 396 kts 306°
2026-05-05 08:17 42.06230 16.45955 36071 ft 395 kts 306°
2026-05-05 08:18 42.09685 16.40191 36070 ft 396 kts 306°
2026-05-05 08:18 42.13142 16.34422 36057 ft 396 kts 305°
2026-05-05 08:19 42.16606 16.28618 36052 ft 398 kts 305°
2026-05-05 08:19 42.18339 16.25699 35947 ft 399 kts 305°
2026-05-05 08:19 42.20087 16.22751 35029 ft 407 kts 305°
2026-05-05 08:20 42.21865 16.19755 34323 ft 408 kts 306°
2026-05-05 08:20 42.23633 16.16780 33700 ft 405 kts 306°
2026-05-05 08:20 42.25395 16.13823 33064 ft 403 kts 306°
2026-05-05 08:20 42.27153 16.10893 32435 ft 399 kts 307°
2026-05-05 08:21 42.28971 16.08057 31756 ft 400 kts 308°
2026-05-05 08:21 42.30846 16.05294 31194 ft 398 kts 309°
2026-05-05 08:21 42.32738 16.02574 30626 ft 396 kts 309°
2026-05-05 08:21 42.34623 15.99874 30057 ft 394 kts 309°
2026-05-05 08:22 42.36497 15.97172 29333 ft 394 kts 308°
2026-05-05 08:22 42.38357 15.94463 28632 ft 393 kts 308°
2026-05-05 08:22 42.40202 15.91749 28085 ft 389 kts 308°
2026-05-05 08:22 42.42016 15.89063 27631 ft 385 kts 308°
2026-05-05 08:23 42.43808 15.86397 27194 ft 381 kts 308°
2026-05-05 08:23 42.45559 15.83787 26760 ft 377 kts 308°
2026-05-05 08:23 42.47303 15.81155 26331 ft 373 kts 306°
2026-05-05 08:23 42.48677 15.78245 25906 ft 364 kts 292°
2026-05-05 08:24 42.49491 15.75027 25500 ft 359 kts 280°
2026-05-05 08:24 42.49731 15.71689 25091 ft 355 kts 268°
2026-05-05 08:24 42.49614 15.68358 24688 ft 353 kts 267°
2026-05-05 08:24 42.49495 15.65045 24257 ft 351 kts 267°
2026-05-05 08:25 42.49379 15.61747 23848 ft 349 kts 268°
2026-05-05 08:25 42.49264 15.58472 23392 ft 348 kts 268°
2026-05-05 08:25 42.49150 15.55212 22943 ft 345 kts 267°
2026-05-05 08:25 42.49035 15.51989 22517 ft 341 kts 267°
2026-05-05 08:26 42.48919 15.48794 22082 ft 338 kts 267°
2026-05-05 08:26 42.48804 15.45629 21656 ft 335 kts 267°
2026-05-05 08:26 42.48689 15.42488 21238 ft 332 kts 266°
2026-05-05 08:26 42.48572 15.39371 20813 ft 330 kts 266°
2026-05-05 08:27 42.48454 15.36279 20383 ft 327 kts 266°
2026-05-05 08:27 42.48337 15.33208 19958 ft 325 kts 266°
2026-05-05 08:27 42.48221 15.30160 19539 ft 323 kts 266°
2026-05-05 08:27 42.48104 15.27129 19123 ft 322 kts 265°
2026-05-05 08:28 42.47984 15.24110 18711 ft 320 kts 265°
2026-05-05 08:28 42.47866 15.21124 18435 ft 314 kts 265°
2026-05-05 08:28 42.47752 15.18188 18173 ft 312 kts 265°
2026-05-05 08:28 42.47644 15.15261 17753 ft 311 kts 265°
2026-05-05 08:29 42.47538 15.12335 17293 ft 311 kts 265°
2026-05-05 08:29 42.47432 15.09402 16833 ft 312 kts 265°
2026-05-05 08:29 42.47323 15.06473 16456 ft 310 kts 265°
2026-05-05 08:30 42.47101 15.00651 15706 ft 307 kts 264°
2026-05-05 08:30 42.46987 14.97766 15277 ft 306 kts 264°
2026-05-05 08:30 42.46874 14.94890 14867 ft 306 kts 264°
2026-05-05 08:30 42.46760 14.92022 14480 ft 304 kts 265°
2026-05-05 08:31 42.46645 14.89184 14156 ft 300 kts 265°
2026-05-05 08:31 42.46530 14.86369 13793 ft 298 kts 265°
2026-05-05 08:31 42.46418 14.83577 13370 ft 296 kts 265°
2026-05-05 08:31 42.46308 14.80795 12948 ft 295 kts 265°
2026-05-05 08:32 42.46197 14.78029 12535 ft 293 kts 265°
2026-05-05 08:32 42.46084 14.75275 12136 ft 292 kts 265°
2026-05-05 08:32 42.45973 14.72533 11725 ft 291 kts 265°
2026-05-05 08:32 42.45867 14.69802 11312 ft 290 kts 265°
2026-05-05 08:33 42.45766 14.67072 10932 ft 290 kts 265°
2026-05-05 08:33 42.45668 14.64353 10576 ft 289 kts 265°
2026-05-05 08:33 42.45569 14.61642 10239 ft 287 kts 265°
2026-05-05 08:33 42.45474 14.58990 10112 ft 277 kts 266°
2026-05-05 08:34 42.45779 14.56463 9954 ft 272 kts 290°
2026-05-05 08:34 42.46862 14.54382 9639 ft 274 kts 317°
2026-05-05 08:34 42.48519 14.53148 9140 ft 273 kts 340°
2026-05-05 08:34 42.50335 14.52393 8418 ft 273 kts 341°
2026-05-05 08:35 42.52157 14.51662 7696 ft 273 kts 341°
2026-05-05 08:35 42.53807 14.50958 7141 ft 266 kts 333°
2026-05-05 08:35 42.55302 14.49691 6869 ft 245 kts 315°
2026-05-05 08:35 42.56387 14.48002 6473 ft 233 kts 304°
2026-05-05 08:36 42.57379 14.46263 6109 ft 233 kts 305°
2026-05-05 08:36 42.58372 14.44534 5771 ft 232 kts 305°
2026-05-05 08:36 42.59365 14.42806 5422 ft 232 kts 306°
2026-05-05 08:36 42.60357 14.41079 5087 ft 232 kts 306°
2026-05-05 08:37 42.61071 14.39177 4743 ft 225 kts 273°
2026-05-05 08:37 42.60794 14.37137 4441 ft 225 kts 238°
2026-05-05 08:37 42.59707 14.35643 4065 ft 225 kts 214°
2026-05-05 08:37 42.58439 14.34400 3721 ft 225 kts 217°
2026-05-05 08:38 42.57225 14.33071 3399 ft 222 kts 220°
2026-05-05 08:38 42.56065 14.31760 3067 ft 218 kts 219°
2026-05-05 08:38 42.54869 14.30490 2768 ft 212 kts 218°
2026-05-05 08:38 42.53729 14.29301 2496 ft 207 kts 218°
2026-05-05 08:39 42.52595 14.28123 2226 ft 195 kts 218°
2026-05-05 08:39 42.51569 14.27057 1963 ft 177 kts 218°
2026-05-05 08:39 42.50642 14.26095 1734 ft 164 kts 218°
2026-05-05 08:39 42.49750 14.25168 1517 ft 156 kts 219°
2026-05-05 08:40 42.48910 14.24296 1340 ft 148 kts 219°
2026-05-05 08:40 42.48106 14.23461 1127 ft 144 kts 219°
2026-05-05 08:40 42.47317 14.22642 941 ft 142 kts 218°
2026-05-05 08:40 42.46532 14.21828 745 ft 142 kts 219°
2026-05-05 08:41 42.45755 14.21017 577 ft 140 kts 217°
2026-05-05 08:41 42.44982 14.20228 350 ft 139 kts 216°
2026-05-05 08:41 42.44218 14.19431 146 ft 138 kts 218°
2026-05-05 08:41 42.43477 14.18658 42 ft 122 kts 218°
2026-05-05 08:42 42.42833 14.18001 51 ft 87 kts 218°
2026-05-05 08:42 42.42568 14.17720 53 ft 41 kts 218°
2026-05-05 08:42 42.42379 14.17526 50 ft 31 kts 216°
2026-05-05 08:42 42.42277 14.17513 55 ft 15 kts 107°
2026-05-05 08:43 42.42280 14.17665 55 ft 17 kts 80°
2026-05-05 08:43 42.42357 14.17795 54 ft 19 kts 37°
2026-05-05 08:43 42.42475 14.17900 51 ft 21 kts 33°
2026-05-05 08:43 42.42586 14.18013 52 ft 19 kts 38°
2026-05-05 08:44 42.42694 14.18128 51 ft 21 kts 38°
2026-05-05 08:44 42.42813 14.18255 50 ft 23 kts 38°
2026-05-05 08:44 42.42945 14.18395 45 ft 25 kts 38°
2026-05-05 08:44 42.43030 14.18492 48 ft 14 kts 43°
2026-05-05 08:45 42.43034 14.18577 47 ft 9 kts 105°
2026-05-05 08:45 42.43042 14.18633 47 ft 5 kts 56°
2026-05-05 08:45 42.43072 14.18668 47 ft 5 kts 36°
2026-05-05 08:45 42.43098 14.18695 46 ft 4 kts 37°
2026-05-05 08:46 42.43118 14.18715 46 ft 3 kts 37°
2026-05-05 08:46 42.43136 14.18734 44 ft 6 kts 40°
2026-05-05 08:46 42.43126 14.18801 43 ft 4 kts 137°
2026-05-05 08:46 42.43123 14.18801 44 ft 0 kts 161°